GW2440 Weather Reports


Display with metric or nautical units.
time (UTC)temp
F
wind
direction
speed
MPH
gust
MPH
rain 1hr
in
rain 24hr
in
rain mn
in
humidity
%
barometer
mb
20260507091156 68 180 0.0 0.0 0.00 0.00 0.00 94 1016.9
20260507090651 69 186 0.0 0.0 0.00 0.00 0.00 93 1016.2
20260507090149 68 167 0.0 0.0 0.00 0.00 0.00 93 1016.2
20260507085646 68 158 0.0 0.0 0.00 0.00 0.00 93 1016.5
20260507085142 68 158 0.0 0.0 0.00 0.00 0.00 93 1016.5
20260507084640 68 158 0.0 0.0 0.00 0.00 0.00 93 1016.5
20260507084136 68 158 0.0 0.0 0.00 0.00 0.00 93 1016.5
20260507083633 69 158 0.0 0.0 0.00 0.00 0.00 92 1016.5
20260507083130 69 156 0.0 0.0 0.00 0.00 0.00 92 1016.5
20260507082625 69 154 0.0 0.0 0.00 0.00 0.00 92 1016.5
20260507082122 69 148 0.0 0.0 0.00 0.00 0.00 92 1016.5
20260507081619 68 148 0.0 0.0 0.00 0.00 0.00 92 1016.5
20260507081115 68 158 0.0 0.0 0.00 0.00 0.00 92 1016.2
20260507080612 68 139 0.0 0.0 0.00 0.00 0.00 92 1016.2
20260507080108 68 133 0.0 0.0 0.00 0.00 0.00 92 1016.5
20260507075603 69 132 0.0 0.0 0.00 0.00 0.00 92 1016.5
20260507075100 68 133 0.0 0.0 0.00 0.00 0.00 91 1016.2
20260507074557 68 134 0.0 0.0 0.00 0.00 0.00 91 1016.5
20260507074055 68 134 0.0 0.0 0.00 0.00 0.00 91 1016.5
20260507073550 68 118 0.0 0.0 0.00 0.00 0.00 91 1016.5
20260507073047 68 118 0.0 0.0 0.00 0.00 0.00 92 1016.5
20260507072545 68 118 0.0 0.0 0.00 0.00 0.00 92 1016.9
20260507072042 69 118 0.0 0.0 0.00 0.00 0.00 92 1016.9
20260507071539 68 118 0.0 0.0 0.00 0.00 0.00 92 1016.9
20260507071036 68 118 0.0 0.0 0.00 0.00 0.00 91 1016.9
20260507070533 69 118 0.0 0.0 0.00 0.00 0.00 91 1016.9
20260507070030 68 118 0.0 0.0 0.00 0.00 0.00 90 1016.9
20260507065526 69 118 0.0 0.0 0.00 0.00 0.00 90 1017.2
20260507065023 69 118 0.0 0.0 0.00 0.00 0.00 90 1016.9
20260507064521 69 118 0.0 0.0 0.00 0.00 0.00 90 1016.9
20260507064020 69 118 0.0 0.0 0.00 0.00 0.00 88 1016.9
20260507063516 70 118 0.0 0.0 0.00 0.00 0.00 86 1016.9
20260507063014 70 118 0.0 0.0 0.00 0.00 0.00 85 1016.9
20260507062510 70 118 0.0 0.0 0.00 0.00 0.00 84 1017.2
20260507062008 70 119 0.0 0.0 0.00 0.00 0.00 84 1017.2
20260507061505 70 118 0.0 0.0 0.00 0.00 0.00 84 1017.5
20260507061003 71 118 0.0 0.0 0.00 0.00 0.00 82 1017.5
20260507060500 71 119 0.0 0.0 0.00 0.00 0.00 81 1017.5
20260507055956 71 102 0.0 0.0 0.00 0.00 0.00 81 1017.5
20260507055452 71 102 0.0 0.0 0.00 0.00 0.00 80 1017.5
20260507054949 72 102 0.0 0.0 0.00 0.00 0.00 80 1017.9
20260507054445 72 101 0.0 0.0 0.00 0.00 0.00 80 1017.5
20260507053942 73 115 0.0 0.0 0.00 0.00 0.00 78 1017.9
20260507053440 73 133 0.0 0.0 0.00 0.00 0.00 77 1017.9
20260507052938 73 164 0.0 0.0 0.00 0.00 0.00 76 1017.9
20260507052436 73 164 0.0 0.0 0.00 0.00 0.00 75 1017.9
20260507051932 73 164 0.0 0.0 0.00 0.00 0.00 75 1018.2
20260507051430 73 178 0.0 0.0 0.00 0.00 0.00 75 1017.9
20260507050927 73 195 0.0 0.0 0.00 0.00 0.00 75 1017.9
20260507050423 73 166 0.0 0.0 0.00 0.00 0.00 74 1017.9
20260507045920 74 165 0.0 0.0 0.00 0.00 0.00 74 1017.9
20260507045417 74 186 0.0 0.0 0.00 0.00 0.00 73 1017.9
20260507044914 74 195 3.0 3.0 0.00 0.00 0.00 73 1018.2
20260507044410 74 184 1.0 1.0 0.00 0.00 0.00 73 1017.9
20260507043906 74 193 0.0 0.0 0.00 0.00 0.00 73 1018.2
20260507043358 74 190 0.0 0.0 0.00 0.00 0.00 72 1018.6
20260507042854 74 193 0.0 1.0 0.00 0.00 0.00 72 1018.2
20260507042350 75 184 0.0 1.0 0.00 0.00 0.00 72 1018.2
20260507041846 75 188 1.0 1.0 0.00 0.00 0.00 71 1018.2
20260507041343 75 183 0.0 0.0 0.00 0.00 0.00 71 1017.9
20260507040841 75 199 1.0 1.0 0.00 0.00 0.00 71 1018.2
20260507040336 75 187 1.0 2.0 0.00 0.00 0.00 70 1018.2
20260507035833 75 178 1.0 1.0 0.00 0.00 0.00 70 1018.2
20260507035328 76 187 1.0 2.0 0.00 0.00 0.00 69 1018.2
20260507034826 76 191 3.0 3.0 0.00 0.00 0.00 69 1018.2
20260507034322 76 183 1.0 2.0 0.00 0.00 0.00 69 1018.2
20260507033821 76 177 1.0 1.0 0.00 0.00 0.00 69 1018.2
20260507033319 76 222 1.0 1.0 0.00 0.00 0.00 69 1018.6
20260507032815 76 196 1.0 1.0 0.00 0.00 0.00 69 1018.2
20260507032311 76 193 1.0 2.0 0.00 0.00 0.00 69 1018.2
20260507031808 76 201 3.0 3.0 0.00 0.00 0.00 68 1018.2
20260507031305 76 194 1.0 1.0 0.00 0.00 0.00 69 1018.2
20260507030801 76 164 0.0 1.0 0.00 0.00 0.00 69 1018.2
20260507030259 76 234 2.0 2.0 0.00 0.00 0.00 69 1018.6
20260507025756 77 263 3.0 3.0 0.00 0.00 0.00 68 1018.6
20260507025253 76 167 3.0 3.0 0.00 0.00 0.00 68 1018.6
20260507024751 77 185 2.0 3.0 0.00 0.00 0.00 67 1018.2
20260507024248 77 224 3.0 3.0 0.00 0.00 0.00 67 1018.6
20260507023743 77 225 2.0 2.0 0.00 0.00 0.00 67 1018.2
20260507023241 77 195 1.0 1.0 0.00 0.00 0.00 66 1018.2
20260507022738 77 255 6.0 7.0 0.00 0.00 0.00 66 1018.2
20260507022234 77 266 2.0 2.0 0.00 0.00 0.00 66 1017.9
20260507021730 77 133 0.0 1.0 0.00 0.00 0.00 66 1017.5
20260507021226 77 80 2.0 3.0 0.00 0.00 0.00 66 1017.5
20260507020724 77 83 1.0 2.0 0.00 0.00 0.00 65 1017.5
20260507020220 78 159 1.0 1.0 0.00 0.00 0.00 65 1017.5
20260507015718 78 111 2.0 2.0 0.00 0.00 0.00 65 1017.9
20260507015215 78 97 4.0 5.0 0.00 0.00 0.00 66 1017.5
20260507014712 78 94 0.0 0.0 0.00 0.00 0.00 66 1017.9
20260507014208 78 155 1.0 2.0 0.00 0.00 0.00 66 1017.2
20260507013705 78 211 3.0 3.0 0.00 0.00 0.00 66 1017.5
20260507013202 78 140 4.0 5.0 0.00 0.00 0.00 66 1017.5
20260507012700 78 190 4.0 6.0 0.00 0.00 0.00 66 1017.2
20260507012155 78 185 0.0 1.0 0.00 0.00 0.00 66 1017.2
20260507011653 78 203 1.0 1.0 0.00 0.00 0.00 65 1017.2
20260507011149 79 73 3.0 3.0 0.00 0.00 0.00 65 1017.9
20260507010644 79 121 1.0 2.0 0.00 0.00 0.00 64 1017.9
20260507010140 79 117 6.0 7.0 0.00 0.00 0.00 63 1017.2
20260507005638 79 79 2.0 2.0 0.00 0.00 0.00 63 1017.2
20260507005133 80 89 2.0 2.0 0.00 0.00 0.00 62 1017.2
20260507004631 80 76 4.0 6.0 0.00 0.00 0.00 61 1017.2
20260507004128 80 88 2.0 3.0 0.00 0.00 0.00 61 1017.2
20260507003624 80 100 1.0 1.0 0.00 0.00 0.00 60 1017.2
20260507003120 80 177 1.0 1.0 0.00 0.00 0.00 59 1016.9
20260507002616 81 137 5.0 8.0 0.00 0.00 0.00 58 1016.9
20260507002112 81 48 4.0 5.0 0.00 0.00 0.00 58 1017.2
20260507001609 81 30 2.0 2.0 0.00 0.00 0.00 58 1016.9
20260507001106 82 15 3.0 3.0 0.00 0.00 0.00 59 1016.9
20260507000602 82 90 2.0 3.0 0.00 0.00 0.00 58 1016.9
20260507000058 82 157 1.0 1.0 0.00 0.00 0.00 58 1016.9
20260506235555 83 84 4.0 5.0 0.00 0.00 0.00 57 1016.9
20260506235050 83 201 3.0 5.0 0.00 0.00 0.00 56 1016.9
20260506234548 84 113 4.0 6.0 0.00 0.00 0.00 56 1016.9
20260506234045 84 77 1.0 1.0 0.00 0.00 0.00 57 1016.9
20260506233542 84 38 2.0 2.0 0.00 0.00 0.00 56 1016.9
20260506233039 85 73 3.0 6.0 0.00 0.00 0.00 55 1016.9
20260506232535 85 123 3.0 7.0 0.00 0.00 0.00 55 1016.9
20260506232030 86 56 5.0 6.0 0.00 0.00 0.00 56 1016.9
20260506231528 86 59 1.0 1.0 0.00 0.00 0.00 55 1016.9
20260506231026 86 96 4.0 7.0 0.00 0.00 0.00 55 1016.5
20260506230522 86 56 3.0 3.0 0.00 0.00 0.00 55 1016.9
20260506230020 87 173 4.0 8.0 0.00 0.00 0.00 54 1016.9
20260506225516 87 72 2.0 3.0 0.00 0.00 0.00 54 1016.9
20260506225012 87 125 1.0 3.0 0.00 0.00 0.00 53 1016.9
20260506224509 87 66 2.0 3.0 0.00 0.00 0.00 54 1016.5
20260506224006 88 79 5.0 8.0 0.00 0.00 0.00 52 1016.9
20260506223502 88 152 4.0 5.0 0.00 0.00 0.00 52 1016.5
20260506222959 88 68 3.0 6.0 0.00 0.00 0.00 52 1016.5
20260506222455 89 78 5.0 6.0 0.00 0.00 0.00 51 1016.5
20260506221952 90 50 4.0 6.0 0.00 0.00 0.00 50 1016.9
20260506221449 92 187 3.0 3.0 0.00 0.00 0.00 41 1016.9
20260506220947 91 175 2.0 2.0 0.00 0.00 0.00 42 1016.9
20260506220442 92 180 1.0 1.0 0.00 0.00 0.00 40 1016.9
20260506215939 91 197 0.0 0.0 0.00 0.00 0.00 41 1016.5
20260506215435 92 135 2.0 2.0 0.00 0.00 0.00 40 1016.9
20260506214931 92 165 3.0 3.0 0.00 0.00 0.00 41 1016.9
20260506214428 93 179 6.0 7.0 0.00 0.00 0.00 40 1016.9
20260506213926 93 228 0.0 1.0 0.00 0.00 0.00 40 1016.9
20260506213423 91 202 1.0 1.0 0.00 0.00 0.00 41 1016.9
20260506212921 93 212 6.0 7.0 0.00 0.00 0.00 40 1016.9
20260506212416 92 249 5.0 6.0 0.00 0.00 0.00 40 1016.9
20260506211911 92 229 3.0 3.0 0.00 0.00 0.00 41 1016.9
20260506211408 94 227 3.0 5.0 0.00 0.00 0.00 39 1016.9
20260506210905 92 158 0.0 0.0 0.00 0.00 0.00 41 1016.9
20260506210402 92 196 3.0 5.0 0.00 0.00 0.00 41 1016.9
20260506205859 92 205 3.0 3.0 0.00 0.00 0.00 42 1016.5
20260506205355 92 221 2.0 2.0 0.00 0.00 0.00 41 1016.9
20260506204851 93 187 4.0 5.0 0.00 0.00 0.00 41 1016.5
20260506204349 92 193 1.0 2.0 0.00 0.00 0.00 43 1016.9
20260506203846 92 215 1.0 2.0 0.00 0.00 0.00 43 1016.9
20260506203343 92 247 4.0 5.0 0.00 0.00 0.00 43 1016.9
20260506202840 92 102 0.0 1.0 0.00 0.00 0.00 44 1016.9
20260506202337 91 199 2.0 2.0 0.00 0.00 0.00 43 1016.9
20260506201834 91 210 3.0 3.0 0.00 0.00 0.00 43 1016.9
20260506201331 92 211 6.0 7.0 0.00 0.00 0.00 42 1016.9
20260506200828 91 232 5.0 7.0 0.00 0.00 0.00 44 1016.9
20260506200324 92 201 4.0 5.0 0.00 0.00 0.00 43 1016.9
20260506195820 91 98 2.0 2.0 0.00 0.00 0.00 44 1017.2
20260506195318 93 161 3.0 3.0 0.00 0.00 0.00 42 1017.2
20260506194809 92 199 2.0 2.0 0.00 0.00 0.00 42 1017.2
20260506194305 91 228 3.0 3.0 0.00 0.00 0.00 44 1017.2
20260506193803 92 203 2.0 2.0 0.00 0.00 0.00 43 1017.2
20260506193259 91 100 0.0 2.0 0.00 0.00 0.00 45 1017.2
20260506192756 92 174 2.0 3.0 0.00 0.00 0.00 43 1017.2
20260506192253 91 159 4.0 6.0 0.00 0.00 0.00 44 1017.5
20260506191750 90 37 1.0 2.0 0.00 0.00 0.00 44 1017.5
20260506191246 91 85 5.0 6.0 0.00 0.00 0.00 44 1017.5
20260506190743 91 172 3.0 5.0 0.00 0.00 0.00 43 1017.2
20260506190239 90 50 5.0 7.0 0.00 0.00 0.00 45 1017.5
20260506185737 89 42 5.0 6.0 0.00 0.00 0.00 46 1017.9
20260506185233 90 161 2.0 3.0 0.00 0.00 0.00 46 1017.9
20260506184730 90 150 3.0 5.0 0.00 0.00 0.00 45 1017.9
20260506184228 90 51 4.0 6.0 0.00 0.00 0.00 44 1017.9
20260506183725 89 149 1.0 1.0 0.00 0.00 0.00 46 1017.9
20260506183221 90 89 2.0 5.0 0.00 0.00 0.00 44 1017.9
20260506182718 90 72 3.0 5.0 0.00 0.00 0.00 47 1018.2
20260506182215 91 47 3.0 3.0 0.00 0.00 0.00 45 1018.2
20260506181712 90 44 1.0 2.0 0.00 0.00 0.00 46 1017.9
20260506181210 90 193 1.0 1.0 0.00 0.00 0.00 46 1018.2
20260506180707 89 97 1.0 1.0 0.00 0.00 0.00 47 1018.2
20260506180203 89 56 2.0 2.0 0.00 0.00 0.00 44 1018.2
20260506175700 89 148 4.0 5.0 0.00 0.00 0.00 46 1018.2
20260506175157 89 189 5.0 6.0 0.00 0.00 0.00 45 1018.6
20260506174654 89 203 5.0 8.0 0.00 0.00 0.00 48 1018.2
20260506174151 89 181 2.0 2.0 0.00 0.00 0.00 48 1018.6
20260506173649 88 249 3.0 5.0 0.00 0.00 0.00 51 1018.9
20260506173145 87 173 0.0 0.0 0.00 0.00 0.00 49 1018.6
20260506172642 89 165 1.0 2.0 0.00 0.00 0.00 48 1018.9
20260506172139 88 212 3.0 3.0 0.00 0.00 0.00 50 1018.6
20260506171636 88 216 3.0 3.0 0.00 0.00 0.00 50 1018.9
20260506171134 87 230 5.0 6.0 0.00 0.00 0.00 50 1018.9
20260506170626 87 239 4.0 6.0 0.00 0.00 0.00 51 1018.9
20260506170122 87 260 2.0 2.0 0.00 0.00 0.00 51 1018.9
20260506165621 87 260 3.0 3.0 0.00 0.00 0.00 51 1018.9
20260506165117 87 180 5.0 6.0 0.00 0.00 0.00 49 1018.9
20260506164614 86 251 5.0 6.0 0.00 0.00 0.00 52 1018.9
20260506164112 85 76 3.0 3.0 0.00 0.00 0.00 52 1019.2
20260506163607 86 48 4.0 6.0 0.00 0.00 0.00 55 1019.2
20260506163103 87 177 6.0 7.0 0.00 0.00 0.00 53 1019.2
20260506162559 86 109 0.0 0.0 0.00 0.00 0.00 51 1019.2
20260506162051 86 189 1.0 1.0 0.00 0.00 0.00 51 1019.2
20260506161549 86 108 3.0 3.0 0.00 0.00 0.00 54 1019.2
20260506161045 87 199 3.0 3.0 0.00 0.00 0.00 52 1019.6
20260506160543 86 168 5.0 6.0 0.00 0.00 0.00 53 1019.2
20260506160040 86 161 0.0 0.0 0.00 0.00 0.00 51 1019.2
20260506155539 86 36 2.0 3.0 0.00 0.00 0.00 52 1019.2
20260506153715 85 100 1.0 1.0 0.00 0.00 0.00 54 1019.2
20260506153213 85 138 1.0 1.0 0.00 0.00 0.00 56 1019.2
20260506152709 84 207 2.0 5.0 0.00 0.00 0.00 56 1019.6
20260506152207 84 144 2.0 3.0 0.00 0.00 0.00 59 1019.2
20260506151706 84 129 1.0 1.0 0.00 0.00 0.00 58 1019.2
20260506151202 83 105 2.0 3.0 0.00 0.00 0.00 59 1019.2
20260506150658 85 359 3.0 5.0 0.00 0.00 0.00 63 1019.2
20260506150156 85 14 1.0 2.0 0.00 0.00 0.00 65 1019.2
20260506145653 83 90 1.0 2.0 0.00 0.00 0.00 66 1019.6
20260506145149 82 191 3.0 3.0 0.00 0.00 0.00 69 1019.2
20260506144647 84 18 1.0 3.0 0.00 0.00 0.00 69 1019.2
20260506144144 81 317 0.0 0.0 0.00 0.00 0.00 72 1019.6
20260506143641 82 207 5.0 7.0 0.00 0.00 0.00 72 1019.2
20260506143139 82 184 4.0 5.0 0.00 0.00 0.00 71 1019.6
20260506142637 80 174 4.0 6.0 0.00 0.00 0.00 75 1019.2
20260506142135 81 182 7.0 8.0 0.00 0.00 0.00 75 1018.9
20260506141632 80 201 3.0 5.0 0.00 0.00 0.00 75 1019.2
20260506141130 80 179 5.0 6.0 0.00 0.00 0.00 77 1019.2
20260506140628 79 130 7.0 9.0 0.00 0.00 0.00 79 1019.2
20260506140125 79 187 6.0 7.0 0.00 0.00 0.00 80 1019.2
20260506135622 79 187 5.0 6.0 0.00 0.00 0.00 80 1018.9
20260506135118 78 89 1.0 2.0 0.00 0.00 0.00 82 1019.2
20260506134615 78 191 3.0 5.0 0.00 0.00 0.00 82 1019.2
20260506134110 77 176 4.0 5.0 0.00 0.00 0.00 83 1019.2
20260506133608 77 169 3.0 5.0 0.00 0.00 0.00 84 1018.9
20260506133105 78 118 0.0 1.0 0.00 0.00 0.00 83 1019.2
20260506132602 77 116 3.0 5.0 0.00 0.00 0.00 85 1019.2
20260506132059 76 174 2.0 3.0 0.00 0.00 0.00 86 1019.2
20260506131556 76 200 4.0 5.0 0.00 0.00 0.00 85 1019.2
20260506131052 75 182 6.0 7.0 0.00 0.00 0.00 87 1019.2
20260506130549 75 86 2.0 2.0 0.00 0.00 0.00 87 1018.9
20260506130047 75 176 3.0 5.0 0.00 0.00 0.00 88 1018.9
20260506125545 75 62 0.0 0.0 0.00 0.00 0.00 88 1018.9
20260506125043 74 176 2.0 2.0 0.00 0.00 0.00 89 1018.9
20260506124540 73 163 0.0 0.0 0.00 0.00 0.00 90 1018.9
20260506124038 73 125 3.0 3.0 0.00 0.00 0.00 90 1018.9
20260506123535 72 159 0.0 1.0 0.00 0.00 0.00 92 1018.9
20260506123033 71 149 3.0 3.0 0.00 0.00 0.00 92 1018.9
20260506122529 71 167 0.0 0.0 0.00 0.00 0.00 93 1018.9
20260506122028 70 180 1.0 1.0 0.00 0.00 0.00 93 1018.9
20260506121525 70 143 2.0 2.0 0.00 0.00 0.00 94 1018.6
20260506121021 69 176 4.0 5.0 0.00 0.00 0.00 95 1018.6
20260506120520 68 187 1.0 1.0 0.00 0.00 0.00 95 1018.6
20260506120017 68 178 0.0 0.0 0.00 0.00 0.00 96 1018.9
20260506115514 67 183 0.0 0.0 0.00 0.00 0.00 98 1018.2
20260506115013 67 209 0.0 0.0 0.00 0.00 0.00 99 1018.6
20260506114509 67 209 0.0 0.0 0.00 0.00 0.00 99 1018.6
20260506114008 66 209 0.0 0.0 0.00 0.00 0.00 99 1018.6
20260506113506 65 210 0.0 0.0 0.00 0.00 0.00 99 1018.2
20260506113003 64 210 0.0 0.0 0.00 0.00 0.00 99 1018.6
20260506112459 64 210 0.0 0.0 0.00 0.00 0.00 99 1018.6
20260506111956 64 210 0.0 0.0 0.00 0.00 0.00 99 1018.2
20260506111454 64 210 0.0 0.0 0.00 0.00 0.00 99 1018.2
20260506110951 63 210 0.0 0.0 0.00 0.00 0.00 99 1018.2
20260506110449 64 210 0.0 0.0 0.00 0.00 0.00 99 1018.2
20260506105945 63 209 0.0 0.0 0.00 0.00 0.00 99 1017.9
20260506105442 63 209 0.0 0.0 0.00 0.00 0.00 99 1017.9
20260506104939 63 209 0.0 0.0 0.00 0.00 0.00 99 1017.9
20260506104437 63 209 0.0 0.0 0.00 0.00 0.00 99 1017.9
20260506103936 63 209 0.0 0.0 0.00 0.00 0.00 99 1017.9
20260506103432 62 209 0.0 0.0 0.00 0.00 0.00 99 1017.9
20260506102929 63 209 0.0 0.0 0.00 0.00 0.00 99 1017.5
20260506102427 63 209 0.0 0.0 0.00 0.00 0.00 99 1017.9
20260506101924 62 209 0.0 0.0 0.00 0.00 0.00 99 1017.5
20260506101420 63 209 0.0 0.0 0.00 0.00 0.00 99 1017.9
20260506100918 63 209 0.0 0.0 0.00 0.00 0.00 99 1017.9
20260506100416 63 209 0.0 0.0 0.00 0.00 0.00 99 1017.9
20260506095914 63 209 0.0 0.0 0.00 0.00 0.00 99 1017.9
20260506095412 62 209 0.0 0.0 0.00 0.00 0.00 99 1017.9
20260506094908 63 209 0.0 0.0 0.00 0.00 0.00 99 1017.9
20260506094407 63 210 0.0 0.0 0.00 0.00 0.00 99 1017.9
20260506093904 62 210 0.0 0.0 0.00 0.00 0.00 99 1017.5
20260506093402 62 210 0.0 0.0 0.00 0.00 0.00 99 1017.9
20260506092859 63 210 0.0 0.0 0.00 0.00 0.00 99 1017.5
20260506092357 63 211 0.0 0.0 0.00 0.00 0.00 99 1017.5
20260506091853 63 161 0.0 0.0 0.00 0.00 0.00 99 1017.5
20260506091352 63 161 0.0 0.0 0.00 0.00 0.00 99 1017.5